Location: Claremont
(33.9858°S, 18.4575°E)
Time: 10:16:29
(UTC+00:00)

ATLAS 3B CENTAUR R/B - Pass Details

Date: 03 March 2021
Orbit: 218 x 3814 km, 28.1° (Epoch: 19 April)

Event Time Altitude Azimuth Distance (km) Brightness Sun altitude
Rises 18:24:49 0° 319° (NW) 6,262 7.0 -14.0°
Reaches altitude 10° 18:31:12 10° 332° (NNW) 4,444 6.0 -15.2°
Maximum altitude 18:38:29 20° 12° (NNE) 2,708 4.5 -16.6°
Enters shadow 18:40:48 17° 34° (NE) 2,515 4.2 -17.1°
